Home > Weather > Jamestown > Past weeks

Flag for Saint Helena Past Weather in Jamestown, Saint Helena — Yesterday and Last 2 Weeks

Now
60 °F

Fog.


Feels Like: 56 °F
Forecast: 69 / 71 °F
Wind: 23 mph from Southeast

Location: Saint Helena Island

Current Time: Jul 25, 2016 at 10:02:32 AM

Latest Report: Jul 25, 2016 at 9:00 AM


Visibility: 2 mi

Pressure: 30.16 "Hg

Humidity: 90%

Dew Point: 57 °F

Location of JamestownLocation

Past Weather in Jamestown — Graph

°F

Jamestown Temperature Yesterday

Maximum temperature yesterday: 63 °F (at 2:00 PM)
Minimum temperature yesterday: 59 °F (at 6:00 AM)
Average temperature yesterday: 61 °F

High & Low Weather Summary for the Past Weeks

 TemperatureHumidityPressure
High70 °F (Jul 10, 3:00 PM)100% (Jul 24, 7:00 AM)30.22 "Hg (Jul 24, 7:00 AM)
Low59 °F (Jul 25, 1:00 AM)46% (Jul 10, 3:00 PM)30.04 "Hg (Jul 10, 3:00 PM)
Average63 °F80%30.13 "Hg
* Reported Jul 10 8:00 AM — Jul 25 8:00 AM, Jamestown, Weather by CustomWeather, © 2016

Note: Actual official high and low records may vary slightly from our data, if they occured in-between our weather recording intervals... More about our weather records

Advertising

Jamestown Weather History for the Previous 24 Hours

Scroll right to see more
 ConditionsComfort  
Time TempWeatherWind HumidityBarometerVisibility
8:00 AM
Mon, Jul 25
60 °FCool.21 mph97%30.14 "HgN/A
7:00 AM59 °FCool.21 mph100%30.13 "HgN/A
5:00 AM59 °FCool.15 mph96%30.11 "HgN/A
4:00 AM60 °FCool.18 mph98%30.11 "HgN/A
3:00 AM60 °FCool.17 mph89%30.12 "HgN/A
2:00 AM60 °FCool.23 mph82%30.12 "HgN/A
1:00 AM59 °FCool.23 mph97%30.14 "HgN/A
11:00 PM
Sun, Jul 24
60 °FCool.16 mph94%30.16 "HgN/A
10:00 PM60 °FCool.18 mph96%30.15 "HgN/A
9:00 PM61 °FCool.22 mph88%30.14 "HgN/A
8:00 PM60 °FCool.18 mph98%30.14 "HgN/A
7:00 PM60 °FCool.17 mph96%30.12 "HgN/A
6:00 PM60 °FCool.17 mph96%30.12 "HgN/A
5:00 PM60 °FCool.15 mph93%30.11 "HgN/A
4:00 PM61 °FCool.20 mph99%30.11 "HgN/A
3:00 PM60 °FCool.18 mph98%30.12 "HgN/A
2:00 PM63 °FMild.18 mph90%30.13 "HgN/A
1:00 PM62 °FCool.17 mph95%30.15 "HgN/A
12:00 PM62 °FLow clouds.17 mph90%30.17 "Hg6 mi
11:00 AM62 °FSprinkles. Low clouds.22 mph92%30.18 "Hg1 mi
10:00 AM60 °FCool.21 mph99%30.19 "HgN/A
Weather by CustomWeather, © 2016

See weather overviewHow to use our weather pages